This is the latest recevied weather packets stored in our database for station/object KY0TEQ-13. If no packets are shown the sender has not sent any weather packets the latest 10 day(s).
| Time | Temp. | Humidity | Pressure | Rain* | Wind** | Luminosity | Snow |
|---|---|---|---|---|---|---|---|
| 1777131468 | 11.67° C | 26% | 1297.7 hPa | 0 mm | - | 470 W/m² | - |
| 1777131167 | 12.78° C | 28% | 1297.4 hPa | 0 mm | - | 436 W/m² | - |
| 1777130863 | 11.67° C | 28% | 1297.7 hPa | 0 mm | - | 424 W/m² | - |
| 1777130559 | 11.11° C | 29% | 1297.9 hPa | 0 mm | - | 430 W/m² | - |
| 1777130255 | 11.67° C | 29% | 1297.8 hPa | 0 mm | - | 419 W/m² | - |
| 1777129952 | 11.11° C | 32% | 1298.1 hPa | 0 mm | - | 389 W/m² | - |
| 1777129651 | 10.56° C | 32% | 1297.8 hPa | 0 mm | - | 266 W/m² | - |
| 1777129346 | 10.56° C | 32% | 1297.9 hPa | 0 mm | - | 199 W/m² | - |
| 1777129042 | 11.67° C | 30% | 1297.9 hPa | 0 mm | - | 182 W/m² | - |
| 1777128738 | 11.67° C | 29% | 1297.8 hPa | 0 mm | - | 286 W/m² | - |
| 1777128435 | 11.67° C | 30% | 1297.8 hPa | 0 mm | - | 303 W/m² | - |
| 1777128132 | 11.67° C | 31% | 1297.8 hPa | 0 mm | - | 273 W/m² | - |
| 1777127830 | 11.67° C | 31% | 1297.8 hPa | 0 mm | - | 251 W/m² | - |
| 1777127527 | 10.56° C | 36% | 1297.8 hPa | 0 mm | - | 233 W/m² | - |
| 1777127223 | 10.56° C | 35% | 1298.1 hPa | 0 mm | - | 219 W/m² | - |
| 1777126919 | 10° C | 37% | 1297.9 hPa | 0 mm | - | 203 W/m² | - |
| 1777126615 | 10° C | 38% | 1298.1 hPa | 0 mm | - | 189 W/m² | - |
| 1777126311 | 9.44° C | 39% | 1298.1 hPa | 0 mm | - | 170 W/m² | - |
| 1777126007 | 9.44° C | 40% | 1298.1 hPa | 0 mm | - | 160 W/m² | - |
| 1777125705 | 8.89° C | 39% | 1297.9 hPa | 0 mm | - | 141 W/m² | - |
| 1777125400 | 8.33° C | 42% | 1298.1 hPa | 0 mm | - | 127 W/m² | - |
| 1777125095 | 8.33° C | 43% | 1298.1 hPa | 0 mm | - | 115 W/m² | - |
| 1777124791 | 8.33° C | 42% | 1298.1 hPa | 0 mm | - | 93 W/m² | - |
| 1777124487 | 7.78° C | 44% | 1297.6 hPa | 0 mm | - | 88 W/m² | - |
| 1777124184 | 8.33° C | 41% | 1297.8 hPa | 0 mm | - | 77 W/m² | - |
* Rain latest hour (hover to see other rain measurements)
** Current wind speed in m/s (hover to see current wind gust speed)